Theta_e
317 320 321 323 326 325 324 326 322 323 323 313 314 315 316 320 318 320 322 322 322 320 320 319 319 319 319 321 322 321 320 320 319 317 320 331 326 319 329 328 328 336 334 340 343 336 336 336 338 340 341 341 341 341 341 341 340 340 338 337 337 337 338 337 338 338 338 338 339 340 340 340 340 341 340 341 340 339 339 339 339 340 341 341 341 341 341 341 340 339 338 338 338 336 333 332 332
322 324 325 326 325 324 324 325 318 317 317 311 314 315 315 320 317 319 322 320 321 320 319 319 319 319 319 320 320 320 321 321 320 320 326 328 324 321 322 321 326 335 335 340 343 338 337 337 338 340 341 341 341 341 341 340 340 340 338 338 337 336 336 337 338 338 339 339 340 341 341 341 341 341 341 341 340 339 339 339 340 340 341 340 341 340 339 339 338 337 336 336 336 336 334 333 332
323 325 325 326 325 324 322 323 318 313 313 310 312 316 317 318 318 320 320 319 319 318 318 319 319 319 319 320 320 321 321 321 321 319 325 327 328 329 322 319 324 333 336 339 344 340 339 339 338 340 341 341 341 341 341 340 340 340 338 338 337 336 335 338 339 339 338 339 341 341 341 341 341 341 341 341 339 339 338 338 339 339 340 340 340 339 339 338 337 336 334 334 335 335 335 333 330
322 325 325 325 323 324 323 323 321 314 311 310 311 317 318 317 318 319 319 320 319 318 318 320 320 320 319 321 321 321 321 320 323 319 325 329 330 331 324 319 322 332 337 339 344 341 342 341 338 340 341 341 341 341 340 340 340 340 338 336 337 336 336 338 340 339 339 340 341 341 341 341 341 341 340 340 339 338 338 337 338 338 339 339 339 338 337 336 335 334 334 334 334 335 335 334 328
324 326 324 325 323 324 324 321 320 315 312 313 312 316 319 317 319 318 319 319 319 319 318 320 321 321 319 320 321 320 321 321 323 321 326 329 325 327 326 320 321 331 337 339 342 342 342 341 338 338 341 340 340 341 341 341 340 340 339 337 337 336 335 338 339 340 339 340 341 341 341 341 341 341 340 339 338 337 336 336 336 336 337 337 337 336 335 334 333 332 332 332 333 333 333 330 324
326 325 322 324 323 322 321 317 316 315 317 318 315 317 319 318 319 318 319 319 320 319 317 319 320 321 320 320 320 320 323 322 322 322 326 329 322 323 326 321 322 330 337 339 341 342 342 341 339 337 340 341 339 341 341 341 340 340 340 338 337 336 335 338 339 340 340 341 341 341 341 341 340 339 338 337 336 336 335 335 334 334 335 335 334 333 333 332 331 331 331 330 331 331 328 324 319
326 325 323 321 322 321 318 316 315 315 319 320 316 317 318 317 319 319 320 320 320 319 318 319 318 320 320 320 320 321 324 321 325 326 324 325 320 322 325 324 324 330 336 338 341 341 341 340 339 338 339 341 340 341 341 341 341 340 340 339 338 338 338 338 340 340 340 341 340 341 340 340 340 338 337 336 335 335 334 333 333 332 332 333 333 331 331 331 330 329 329 327 327 325 321 317 313
324 325 323 320 323 322 318 316 316 318 319 319 317 318 318 318 319 319 320 320 320 320 318 319 318 319 320 320 320 321 322 319 323 324 320 320 319 322 325 327 327 330 335 338 340 340 339 339 339 339 339 340 341 341 341 340 340 340 340 340 339 339 339 338 340 340 340 341 340 340 340 339 338 337 335 334 333 333 333 332 331 332 331 331 331 330 329 328 327 327 326 323 321 318 314 310 306
322 323 322 321 322 321 318 317 317 319 319 319 318 318 318 319 319 319 319 320 320 320 320 319 319 319 320 319 319 322 323 319 318 318 318 318 319 320 324 329 329 330 334 338 339 339 339 338 339 339 339 339 340 340 340 340 340 340 340 339 339 339 339 339 340 340 340 340 340 339 338 337 336 335 334 332 330 330 330 329 330 330 329 328 329 328 327 325 324 324 321 317 313 310 306 303 301
321 321 322 322 320 317 314 316 318 319 320 318 317 318 318 318 319 319 319 320 320 320 320 318 318 319 320 319 319 324 323 318 315 316 316 316 319 320 325 330 330 332 335 338 338 339 339 338 338 339 339 339 340 340 340 339 340 340 340 339 339 339 338 339 338 338 339 339 339 338 337 336 335 334 332 330 328 328 327 327 328 328 327 327 327 326 324 324 323 320 316 310 306 302 300 299 299
323 320 320 321 317 313 312 314 316 318 319 318 318 318 319 318 318 319 319 320 320 320 319 317 318 319 320 319 321 325 321 316 317 320 319 315 318 320 328 332 331 333 335 337 338 338 338 338 338 339 339 339 340 339 339 340 339 339 338 338 338 338 338 337 338 338 338 338 338 337 336 335 334 332 331 329 328 327 326 326 327 327 326 326 326 325 325 324 321 315 310 304 300 299 299 298 298
325 322 321 318 315 314 314 315 316 318 319 318 320 319 318 318 318 319 320 320 319 320 319 318 318 318 319 319 321 324 320 318 320 323 319 316 318 321 329 333 332 334 335 336 337 336 337 338 338 339 339 340 340 339 340 339 339 339 338 338 338 337 337 337 337 337 337 336 336 335 334 333 332 331 329 329 327 325 325 326 326 326 325 325 325 325 325 323 317 310 304 299 298 299 298 298 298
323 323 321 318 318 318 316 316 317 319 319 319 320 318 317 318 319 319 319 319 319 319 319 319 318 318 319 319 321 322 320 320 320 319 316 317 323 324 329 332 332 334 335 335 336 336 336 337 338 339 339 339 340 339 339 339 338 338 337 337 337 336 336 336 335 335 335 334 334 334 332 330 330 329 328 328 325 323 325 325 325 325 324 325 324 324 323 319 313 307 300 298 298 298 298 298 298
321 321 321 318 320 320 317 316 317 317 317 318 318 318 317 317 318 318 317 318 318 319 318 318 318 318 318 319 320 320 323 320 317 315 315 318 325 327 329 332 332 333 334 335 335 335 335 336 337 339 339 339 339 339 339 338 338 337 337 336 335 335 334 334 334 334 333 332 332 331 330 328 328 328 327 328 325 323 324 323 323 324 324 324 323 322 321 316 310 304 299 298 298 298 298 298 298
321 321 321 320 319 319 319 318 318 316 316 318 318 317 317 317 318 317 317 317 317 318 317 317 318 317 318 319 320 323 323 318 315 314 315 317 322 327 329 330 331 331 332 333 333 334 335 335 336 337 338 338 338 338 338 337 337 336 336 335 334 333 332 332 332 332 332 330 329 329 329 328 327 327 327 327 324 323 323 319 320 323 323 323 322 321 318 313 308 302 299 298 298 297 297 297 297
321 321 321 320 318 317 320 321 319 317 316 319 317 317 317 317 317 317 317 316 317 318 318 318 317 317 317 317 320 322 319 316 315 315 317 319 322 326 328 329 330 330 331 332 332 333 334 335 334 335 336 337 337 336 336 336 336 335 334 333 333 332 331 330 330 331 331 330 328 328 328 327 327 326 326 325 322 322 320 316 317 320 323 322 320 319 315 310 305 301 298 298 298 297 297 297 297
320 321 321 319 317 316 320 321 319 316 317 318 317 317 317 317 317 316 316 315 316 317 317 317 317 317 316 317 321 319 316 315 314 317 322 324 324 327 327 328 329 330 330 331 331 332 334 334 334 334 335 335 335 335 334 334 334 333 332 332 331 331 330 329 330 330 330 329 328 328 327 327 326 325 326 324 322 321 317 314 316 318 322 321 318 317 312 306 303 300 298 297 297 297 296 296 296
320 321 320 318 318 318 320 320 318 316 317 317 316 317 317 317 317 316 315 316 316 316 317 317 317 318 317 319 321 318 316 316 317 320 324 326 325 326 327 328 328 329 330 331 331 332 333 334 334 334 333 333 334 335 334 333 332 333 332 331 330 330 329 327 328 329 328 328 327 326 326 326 326 325 325 323 322 321 316 313 315 317 320 320 317 315 310 305 302 299 298 297 297 296 296 296 296
320 321 320 319 320 319 319 319 317 316 316 316 316 316 317 317 316 316 316 316 316 316 317 317 317 318 318 319 320 319 317 318 320 321 323 325 325 325 326 328 328 329 330 330 331 331 332 333 333 333 333 333 332 333 333 332 332 332 331 331 330 329 328 325 327 328 327 327 326 326 325 325 325 325 324 322 322 321 317 314 315 316 319 319 314 312 309 305 302 299 297 296 296 296 295 295 295
319 321 320 320 320 319 320 319 317 316 316 316 316 316 316 317 316 316 316 316 316 316 317 316 317 318 318 318 319 320 318 318 320 320 321 323 324 324 324 327 328 329 329 330 330 331 332 332 332 333 333 333 332 332 331 331 331 331 330 330 330 329 327 325 326 327 327 327 326 325 325 325 324 324 324 322 320 321 319 316 314 315 317 317 313 310 308 304 300 297 296 296 295 295 295 295 295
320 321 320 319 318 318 319 317 317 317 316 316 316 316 316 316 317 316 316 316 316 316 317 317 317 317 317 318 318 319 319 318 320 320 320 320 323 323 323 324 326 328 328 329 330 330 330 331 332 332 332 333 332 331 331 330 330 330 329 330 329 328 328 327 326 327 327 326 325 324 324 324 323 324 323 321 320 320 320 317 315 316 316 315 312 309 306 301 298 296 296 295 295 295 295 295 295
320 320 319 318 317 317 318 317 317 317 317 316 315 315 315 317 317 316 316 316 316 316 316 316 316 316 317 317 317 318 319 319 319 320 321 320 321 322 322 322 323 326 328 328 329 330 329 330 331 331 332 332 332 331 330 330 329 330 329 329 329 328 328 327 326 326 326 325 325 324 324 324 323 323 322 321 320 319 319 318 316 317 317 314 311 309 306 300 297 296 296 295 295 295 295 295 295
318 317 317 317 317 317 317 317 317 317 316 316 315 316 316 317 316 316 316 316 317 316 316 316 316 317 317 317 316 317 318 318 318 319 320 320 320 321 321 321 321 324 327 328 328 329 329 328 329 330 331 332 331 330 330 330 329 329 329 329 328 327 327 326 326 326 326 325 324 323 323 323 322 321 320 320 318 317 318 318 318 317 317 314 309 311 309 302 297 296 295 295 295 295 295 296 295
318 316 315 316 316 317 317 317 317 316 317 316 315 316 316 316 316 316 316 316 317 317 317 317 317 317 317 317 316 316 317 317 318 318 319 319 320 321 321 321 321 322 325 327 327 327 328 327 328 329 329 330 330 330 329 329 329 329 329 328 327 327 327 326 326 325 325 325 323 323 323 322 321 319 318 318 316 316 318 318 318 317 317 315 310 311 309 301 297 296 295 295 296 296 296 295 295
317 316 316 315 316 316 317 317 316 317 317 316 316 316 316 316 316 316 316 316 316 317 317 317 317 317 316 316 316 316 317 317 318 318 318 319 320 320 320 321 320 320 322 325 326 326 327 326 326 327 328 328 329 329 329 329 328 328 328 328 327 326 326 326 326 325 325 324 323 323 322 320 319 317 317 317 316 316 318 318 318 317 316 314 310 308 305 299 297 296 296 296 295 296 295 295 295
316 316 316 316 316 316 316 316 315 316 316 316 316 315 315 316 315 315 315 316 316 316 316 317 316 316 316 316 316 316 316 316 317 317 318 319 320 320 320 321 321 321 320 322 324 325 325 326 325 325 326 327 327 328 328 327 327 327 327 327 326 325 325 326 325 324 324 323 323 322 321 319 317 316 316 316 316 316 318 317 316 315 314 312 308 304 301 297 296 296 296 296 295 295 295 295 295
315 315 315 314 314 314 314 314 314 314 315 315 315 315 315 315 315 315 316 315 315 316 315 315 315 315 315 315 316 316 316 316 316 317 317 318 319 320 320 320 321 320 320 320 322 323 324 324 325 324 324 325 325 326 326 325 326 326 326 327 326 325 324 325 324 324 323 322 322 322 320 317 315 315 315 315 315 315 315 315 313 312 311 309 305 302 299 297 296 296 296 296 295 295 295 295 294
314 313 313 313 314 314 314 314 314 315 315 314 314 315 314 314 314 315 315 315 315 315 315 315 315 315 314 315 315 316 316 316 317 316 316 317 318 320 320 320 320 320 319 319 319 321 323 323 323 323 324 324 323 325 324 324 325 325 326 326 325 325 324 324 324 324 323 321 320 319 318 315 313 314 314 314 314 313 313 312 310 308 307 306 303 300 298 296 296 295 296 295 295 295 295 295 294
313 312 312 313 314 314 315 315 315 315 314 314 313 313 314 314 314 315 315 316 316 315 315 315 314 314 314 315 315 315 316 316 317 317 317 317 317 318 319 319 319 319 318 318 318 319 321 322 322 322 323 323 322 323 323 323 324 325 325 325 325 324 324 323 323 323 322 320 318 317 315 313 312 312 312 311 311 311 310 308 307 306 305 303 301 299 297 296 296 296 295 295 295 295 295 295 294
312 313 313 313 314 314 315 316 315 315 314 313 312 311 313 314 314 315 316 316 315 315 314 314 314 314 314 314 315 315 316 316 316 317 317 317 317 316 317 317 318 319 318 318 317 318 319 320 320 321 322 323 322 322 323 323 323 324 324 324 324 324 324 323 322 322 320 319 317 315 313 312 311 311 311 310 309 309 307 306 306 304 303 302 300 298 297 296 295 296 296 295 295 295 295 294 294
313 314 314 314 313 314 316 316 314 314 313 312 312 311 312 314 315 315 316 315 315 314 314 313 314 314 314 314 315 315 315 316 315 316 316 316 316 316 316 316 316 317 318 318 318 317 317 317 318 319 320 322 322 322 323 323 323 323 323 324 324 324 323 323 322 321 319 318 316 314 312 311 311 310 310 309 307 307 306 305 304 303 302 301 299 297 296 296 295 295 295 295 294 294 295 294 294
314 314 313 315 314 315 317 316 314 314 313 311 312 312 313 315 315 315 315 314 314 314 314 314 314 314 314 314 314 315 314 315 316 316 315 315 315 315 315 315 314 315 316 317 317 316 317 317 316 317 317 319 321 322 322 323 323 322 323 323 323 323 322 322 321 320 319 317 316 314 312 311 310 310 309 308 307 305 305 304 303 302 301 300 299 297 296 296 295 295 295 295 294 294 296 295 295
315 315 313 315 314 315 317 316 315 316 313 312 312 312 314 315 315 315 314 314 314 314 314 314 314 314 314 315 314 315 314 315 316 315 315 315 315 315 314 314 313 313 314 315 316 316 316 316 316 316 316 318 321 322 322 322 323 322 322 322 322 322 322 321 321 319 318 316 315 314 313 312 310 309 309 307 306 305 304 303 302 301 300 299 299 297 296 295 294 295 294 294 295 295 296 296 296
315 316 315 315 316 315 315 315 316 316 314 313 313 312 313 314 314 314 314 314 314 314 314 314 314 314 314 315 315 315 314 315 315 315 316 315 314 314 314 314 313 312 313 313 314 315 316 316 316 315 316 317 319 321 322 322 322 321 321 321 321 321 321 320 320 319 318 316 315 313 312 311 310 309 308 307 306 304 303 302 301 301 300 299 299 297 296 295 295 295 295 294 295 296 296 296 296
315 316 315 315 316 315 314 315 316 316 315 315 316 315 314 315 314 315 314 314 314 314 314 314 314 314 314 315 315 315 315 315 316 316 315 315 314 314 313 313 313 312 312 312 313 314 315 315 315 315 314 316 318 319 320 321 321 320 320 320 320 319 319 319 319 318 317 316 314 313 312 311 310 309 308 307 306 304 303 301 301 300 299 299 298 297 296 295 295 295 295 295 295 296 297 296 296
317 317 315 315 315 315 315 316 316 316 316 316 315 315 316 315 315 314 314 314 315 314 314 314 315 314 315 315 316 316 316 316 317 317 316 315 314 314 314 313 313 312 312 311 311 312 313 313 314 314 313 314 316 317 318 319 319 319 319 319 319 318 318 318 318 317 316 315 314 313 312 311 310 309 308 307 306 304 303 301 300 299 299 298 298 296 295 295 295 295 296 295 295 296 296 296 296
317 316 316 315 315 315 316 317 317 316 317 316 315 315 315 314 314 314 315 314 315 315 314 314 315 316 316 316 317 317 317 316 317 318 316 315 314 314 314 313 312 311 311 310 310 311 312 312 313 313 313 312 314 315 317 318 318 318 318 318 318 317 316 316 316 316 315 314 314 313 312 311 310 309 308 307 306 305 303 301 300 299 298 298 297 296 295 295 295 295 295 295 295 295 296 297 296
316 316 315 315 315 316 317 317 317 316 315 315 315 314 314 314 314 314 315 315 315 315 315 315 315 316 317 317 317 316 316 316 317 316 314 314 313 313 312 312 312 311 311 310 310 310 311 311 311 312 312 311 312 313 315 316 316 317 316 316 316 316 316 315 315 315 314 313 313 312 311 310 309 308 307 306 306 305 303 301 299 298 298 297 297 296 295 295 295 295 295 295 294 294 295 296 296
315 315 315 316 316 317 317 318 316 315 313 314 314 314 314 314 314 315 316 315 316 315 315 316 316 317 317 317 316 315 315 316 315 313 313 313 313 313 312 312 311 311 310 310 310 310 310 311 310 311 311 311 311 311 312 314 314 315 315 315 315 315 315 314 313 313 312 312 311 311 310 310 309 308 307 305 305 304 303 301 299 298 297 296 296 296 295 295 295 295 295 295 294 294 295 296 295
315 315 316 316 317 318 317 318 316 315 314 314 315 314 315 316 316 316 316 316 316 316 316 316 317 317 317 316 315 315 314 314 314 313 313 312 312 312 311 311 310 309 309 309 309 309 309 309 310 310 310 310 310 309 310 311 312 313 313 313 312 312 312 311 311 311 310 310 309 309 309 309 308 308 307 305 305 304 303 301 299 298 297 296 296 295 295 295 295 295 295 295 295 294 295 295 294
317 317 317 317 318 317 317 317 316 315 315 315 314 315 316 317 318 317 316 316 316 317 317 317 318 316 315 315 315 314 314 314 313 312 311 311 311 311 310 309 309 309 309 308 308 308 308 308 309 309 309 309 309 308 308 309 310 311 311 310 309 309 309 308 308 308 308 308 308 308 308 308 308 308 307 306 305 304 302 301 299 298 297 296 296 295 295 295 295 295 295 295 295 295 295 295 294
318 318 318 317 317 317 317 317 316 316 316 315 314 317 318 316 317 318 317 318 317 318 317 316 315 314 314 314 313 313 313 313 312 311 310 310 310 309 308 308 308 308 307 307 307 307 307 308 308 308 308 308 308 308 307 307 308 309 309 309 308 308 308 308 307 308 307 307 307 307 307 307 307 307 306 306 305 304 303 301 299 298 297 296 295 295 295 296 295 295 295 295 295 295 296 295 295
318 319 318 317 317 316 316 316 316 316 316 315 314 317 319 317 317 318 318 317 318 318 316 314 313 312 312 312 311 311 311 311 310 309 309 308 308 307 306 306 306 306 306 306 306 306 306 306 307 307 307 307 307 307 307 306 307 307 307 308 308 308 308 308 308 307 307 307 306 306 305 305 305 305 305 305 304 304 303 302 300 298 297 296 296 295 296 296 295 295 295 295 295 295 296 296 295
319 317 316 316 315 315 316 316 315 315 315 316 315 315 318 318 317 318 318 317 318 317 314 313 313 312 311 311 311 310 309 309 309 308 307 307 307 306 305 305 304 304 304 305 305 305 305 305 305 306 306 306 306 306 306 306 306 306 307 307 307 307 307 307 307 307 306 305 305 305 304 304 303 303 303 303 303 303 303 302 300 299 297 296 296 295 296 296 296 295 295 295 295 295 296 296 296
318 315 313 314 314 314 314 314 314 315 315 317 317 316 318 319 318 318 317 316 318 316 313 313 312 311 311 310 310 309 309 308 307 307 306 305 305 305 304 304 303 303 303 303 304 304 304 304 304 304 304 304 304 305 305 305 305 305 305 306 306 306 306 306 306 306 305 304 304 303 303 302 302 301 301 302 302 302 302 301 300 299 297 296 296 295 295 296 296 295 295 295 295 295 295 296 296
316 313 313 314 314 314 314 314 314 314 316 319 318 317 319 320 318 316 317 316 316 315 313 313 311 311 310 309 309 308 307 307 306 305 305 305 304 304 303 303 302 302 302 302 302 302 302 302 303 302 302 302 302 303 304 304 304 304 305 305 305 306 306 305 305 305 305 304 303 302 302 301 301 300 300 300 300 300 301 300 300 299 298 297 296 296 295 295 296 296 295 294 294 295 295 295 296
313 313 314 314 315 315 314 314 313 315 319 320 318 317 319 320 318 316 316 315 314 315 314 312 311 310 309 308 307 306 305 305 304 304 303 304 303 302 302 302 301 301 301 301 301 302 301 301 302 301 301 301 301 302 302 303 303 304 304 304 304 305 305 305 305 305 305 304 304 303 302 301 301 300 299 299 299 299 299 299 299 298 298 297 297 296 295 295 296 296 295 294 294 295 295 295 296
312 313 313 315 317 316 316 315 314 319 323 320 317 317 318 320 318 316 316 315 313 314 313 311 310 309 308 306 305 304 303 303 302 302 302 302 302 301 301 301 300 300 300 300 300 301 301 301 301 301 300 300 300 301 301 302 302 303 303 303 303 303 304 304 304 304 304 304 304 303 303 302 301 300 299 299 299 298 298 298 298 298 298 297 297 296 295 295 295 295 295 295 294 294 295 295 296
311 312 312 316 320 321 322 321 319 322 323 317 315 317 318 319 318 316 318 316 313 312 312 311 309 308 306 304 303 302 302 301 301 300 300 300 300 300 300 299 299 299 298 299 299 299 300 300 300 300 300 300 299 300 300 300 301 301 301 302 302 302 302 303 303 303 303 303 303 303 303 302 301 300 299 299 299 298 298 298 298 297 297 297 297 296 296 295 295 295 295 295 294 294 294 295 295
311 313 314 317 321 324 325 323 321 323 321 314 313 316 318 318 316 317 317 314 311 310 310 309 307 305 304 302 302 301 301 300 299 299 298 298 298 299 298 298 298 297 297 297 298 298 298 299 299 299 299 299 299 299 299 299 299 300 300 300 300 301 301 301 302 302 302 302 302 303 302 302 301 301 300 299 299 298 298 297 297 297 297 297 296 296 296 295 295 295 295 295 294 294 294 294 295
313 314 315 318 321 322 322 320 319 320 319 315 315 317 319 317 316 316 313 311 309 308 307 306 305 304 302 301 300 300 299 298 298 297 297 297 297 297 296 296 296 296 296 296 296 297 297 297 297 298 298 298 299 299 299 298 298 299 299 299 299 299 299 300 300 300 301 301 301 301 301 301 301 301 300 300 299 298 298 297 297 297 297 296 296 296 296 295 295 295 295 294 294 294 294 294 294
315 313 315 317 318 319 319 319 319 319 319 317 316 317 318 316 316 315 312 309 308 307 306 304 303 302 302 300 299 298 298 297 297 296 296 296 296 295 295 295 295 295 295 294 295 295 296 296 296 296 297 297 297 298 298 298 298 298 298 298 298 298 298 299 299 299 299 300 300 300 300 300 300 300 300 300 299 298 298 297 297 297 297 296 296 295 295 295 295 294 294 294 294 294 294 293 294
313 312 315 315 315 317 318 318 318 318 319 318 317 317 316 316 317 316 313 310 307 306 305 303 302 301 300 300 299 298 297 296 295 295 294 294 295 295 294 294 294 294 294 293 293 294 294 295 295 295 295 296 296 296 297 297 297 297 297 297 297 297 297 298 298 298 298 298 299 299 299 299 299 299 299 299 299 298 298 297 297 297 296 296 296 295 295 295 294 294 294 294 294 294 293 293 293
313 313 315 314 314 315 315 316 317 317 318 318 317 317 316 316 317 316 314 310 307 305 304 303 302 301 300 298 298 297 296 295 295 294 294 293 294 294 293 293 293 293 293 293 293 292 293 293 294 294 294 295 295 295 296 296 296 297 297 297 296 296 296 296 297 297 297 297 298 298 298 298 298 298 298 298 298 298 297 297 296 296 296 296 296 295 295 295 294 294 294 294 293 293 293 293 293
313 313 313 313 315 315 314 316 317 317 318 318 317 318 317 317 317 316 314 311 308 305 304 303 302 301 300 298 297 296 296 295 295 294 294 294 293 293 293 292 292 293 293 293 292 292 292 292 292 293 293 293 293 294 295 295 295 295 295 296 295 295 296 296 296 295 296 296 296 296 297 297 297 297 297 297 297 297 297 296 296 296 295 295 295 295 295 294 294 294 294 293 293 293 293 293 292
311 311 312 313 314 314 314 316 316 318 319 318 318 318 318 317 316 315 313 310 308 306 304 303 301 300 299 298 297 296 296 295 295 294 294 294 294 293 292 292 292 292 292 293 293 292 292 291 291 291 291 291 291 292 292 293 294 294 293 293 293 293 293 294 295 295 295 295 295 295 295 295 296 296 296 296 296 296 296 296 295 295 295 295 295 295 294 294 294 293 293 293 293 292 292 292 292
312 312 312 313 313 313 314 314 315 317 318 318 319 319 318 315 313 312 310 308 307 307 305 303 301 300 299 298 297 297 296 295 294 294 293 293 293 292 292 292 292 292 292 292 293 292 292 291 291 291 291 291 290 290 289 289 290 291 291 291 291 291 292 292 292 293 293 294 294 294 294 294 294 294 295 295 295 295 295 295 295 295 295 294 294 294 294 294 294 293 293 293 292 292 292 292 292
315 314 314 314 314 315 316 316 316 316 316 318 318 318 318 312 309 309 308 307 307 306 305 303 301 300 299 298 297 296 295 294 294 293 293 293 293 292 292 292 292 292 291 291 292 292 291 291 290 290 290 290 290 290 289 287 288 288 289 289 289 290 290 290 290 290 290 291 292 293 293 293 293 293 294 294 294 294 294 294 294 294 294 294 294 294 294 294 293 293 293 293 292 292 292 291 291
Wind_Speed
5 5 5 5 6 7 7 4 4 3 3 5 3 2 2 4 4 4 3 3 1 4 5 5 4 4 5 6 6 9 9 8 6 6 3 3 1 7 11 12 14 13 19 17 16 25 25 25 24 22 21 19 20 19 18 17 16 15 14 13 13 12 11 11 10 10 8 8 8 8 7 7 7 7 6 6 6 6 7 7 7 7 7 7 7 7 7 7 6 6 3 1 1 1 2 4 4
4 5 5 5 6 6 3 1 5 3 4 5 0 2 4 2 2 3 3 6 4 4 4 4 4 5 7 7 7 9 7 5 6 6 2 4 1 5 11 14 16 14 18 17 15 23 25 24 24 23 21 20 20 19 19 18 17 16 15 14 13 13 12 11 10 10 9 9 8 8 8 8 8 8 8 7 7 7 7 8 8 7 7 8 7 6 6 5 6 4 2 3 2 3 2 2 1
3 5 5 5 5 5 3 2 5 4 4 4 2 4 3 2 2 3 5 6 5 4 3 3 4 5 6 7 6 7 4 2 3 5 1 3 1 3 8 14 17 14 16 16 15 21 23 21 24 24 21 21 20 20 19 18 17 16 16 15 14 14 13 12 11 10 10 9 9 9 9 8 9 9 9 8 7 7 8 8 8 7 7 7 6 5 5 5 5 4 1 3 4 4 4 4 3
2 4 4 5 4 4 4 4 4 5 5 3 2 4 3 3 4 5 5 5 3 2 2 3 3 2 5 7 4 5 5 2 3 3 1 3 2 2 7 15 18 15 15 16 15 19 20 20 24 25 22 21 21 20 20 18 17 16 16 16 15 15 13 12 11 11 10 10 10 10 9 10 10 10 9 8 8 7 8 8 7 7 6 5 5 4 4 4 3 3 2 4 6 5 6 7 9
2 4 4 5 3 2 3 3 3 4 4 4 3 3 5 3 4 6 5 5 2 2 3 3 2 2 4 6 4 3 3 2 3 1 1 4 1 2 7 15 18 15 14 16 16 17 18 20 22 25 22 20 21 20 20 19 18 18 17 16 16 16 14 13 12 12 11 11 11 11 11 11 10 10 9 8 7 7 7 7 6 7 6 4 4 4 3 3 2 2 2 5 7 7 8 9 11
3 4 4 5 3 2 3 4 4 4 3 3 5 5 6 5 5 6 7 6 1 1 3 4 4 3 5 4 5 5 4 3 1 0 1 1 2 4 7 14 18 15 14 17 17 16 17 19 21 24 23 20 21 20 20 20 19 19 17 16 16 15 15 14 13 12 12 12 12 12 12 12 11 10 9 8 7 6 7 8 6 6 7 6 5 4 4 3 2 2 2 6 8 9 10 10 10
5 3 3 4 2 1 5 5 4 5 2 3 5 6 7 7 7 6 7 5 1 2 4 4 3 5 5 2 4 5 4 3 1 1 4 2 2 5 8 13 17 14 15 18 17 16 17 20 21 24 24 21 20 20 20 20 19 19 17 17 16 15 15 15 13 13 13 12 13 12 12 12 11 9 8 8 7 8 9 8 5 6 8 7 6 5 4 4 3 3 3 7 9 10 10 9 9
5 3 1 3 3 3 5 5 4 4 2 2 5 6 7 8 7 6 7 5 2 2 4 4 3 6 2 2 3 4 5 5 6 6 6 5 3 5 9 13 15 15 16 18 17 16 18 20 21 25 25 22 21 20 20 20 20 19 18 17 16 16 16 16 14 13 14 13 13 13 12 11 10 9 8 8 10 11 13 11 7 8 9 7 7 6 5 5 5 4 5 9 10 9 9 8 8
4 3 1 3 4 3 5 5 4 3 3 3 4 6 7 6 6 5 7 5 4 3 3 4 4 5 1 2 5 5 7 5 7 9 9 8 6 6 10 13 14 15 17 18 17 16 18 20 22 26 26 24 23 22 21 21 19 19 18 17 17 17 16 16 15 14 15 14 13 12 11 10 9 9 9 9 11 11 11 10 8 9 7 6 8 7 7 7 7 6 8 10 9 9 8 7 6
4 3 2 3 4 4 5 4 2 1 2 3 5 6 5 4 5 4 6 6 3 3 1 1 5 8 6 6 6 4 6 4 4 6 9 9 8 8 10 14 13 16 18 18 18 16 16 19 23 27 27 25 24 23 22 21 20 19 18 18 17 17 16 16 15 14 14 13 12 11 11 10 10 10 10 10 12 11 11 9 9 9 8 8 8 7 8 7 7 8 9 9 8 7 5 4 3
3 2 2 3 4 5 4 4 4 3 4 4 4 2 2 2 3 4 5 5 3 3 2 4 4 9 9 8 5 3 5 4 3 4 7 9 9 9 10 13 13 14 17 19 18 17 15 18 24 28 27 26 25 24 23 22 22 21 20 19 18 17 17 16 16 15 15 14 13 12 12 12 12 12 14 15 15 14 13 10 10 9 9 9 8 7 7 7 8 9 9 8 6 4 3 2 0
3 2 2 4 4 4 4 6 6 7 7 6 2 3 1 0 3 4 3 5 4 5 5 7 2 3 6 7 2 5 7 5 5 5 7 7 8 10 10 11 13 13 16 19 17 17 16 16 25 29 27 26 26 25 24 23 23 22 22 21 20 19 18 18 17 17 17 16 16 15 14 14 14 14 16 18 17 14 12 11 10 10 10 9 9 8 8 8 9 9 8 5 4 2 1 1 1
4 2 3 5 4 5 5 6 6 7 7 3 2 5 2 2 4 5 4 6 7 8 4 6 2 3 7 7 3 4 7 7 7 7 7 5 6 9 11 9 12 13 15 18 17 17 17 17 23 28 28 28 26 26 26 25 25 24 24 23 22 21 20 20 19 19 19 18 18 18 16 16 16 15 15 17 16 11 10 12 12 11 11 10 10 10 9 9 9 8 6 4 3 3 2 2 2
3 3 4 5 3 5 6 6 5 5 5 2 3 4 3 4 4 4 5 8 8 5 3 1 3 4 7 7 5 3 5 7 7 7 6 7 7 8 10 9 11 14 14 18 18 17 19 19 22 24 27 29 28 28 27 27 26 25 25 24 23 23 23 22 21 21 20 20 20 19 18 18 18 17 18 18 16 12 11 13 13 12 11 11 11 11 10 10 10 8 6 5 4 4 3 3 3
3 2 3 5 4 6 4 4 5 5 6 2 3 3 3 6 4 4 5 8 8 3 3 2 4 3 5 6 4 3 6 6 5 6 7 9 8 7 10 9 11 14 14 16 18 18 20 21 22 24 25 27 26 25 26 27 28 27 26 25 25 25 25 25 24 23 22 22 22 21 20 20 19 19 19 19 17 14 13 14 13 12 12 12 12 11 11 12 10 8 7 6 5 5 4 4 4
3 4 3 5 5 6 3 3 4 4 5 3 4 3 5 7 4 5 3 3 8 4 3 5 7 7 9 10 4 8 7 5 4 5 6 7 7 6 9 10 10 13 15 16 19 20 21 22 23 25 26 25 24 23 23 25 28 29 27 27 27 28 27 26 25 24 24 23 23 23 22 21 20 18 20 20 18 16 15 15 14 13 13 13 12 12 13 12 10 9 8 7 6 5 5 5 4
2 4 4 5 6 6 3 3 4 4 7 5 2 4 6 7 2 4 1 2 10 10 10 10 9 10 13 13 2 6 5 3 3 4 6 6 6 6 8 10 10 13 16 18 20 21 22 24 25 24 26 27 27 26 25 24 27 29 29 29 29 29 27 26 26 25 25 25 25 24 23 23 20 18 20 20 17 17 17 15 15 15 14 13 13 12 13 12 11 10 9 7 6 5 5 5 5
3 3 5 6 5 6 4 4 6 7 9 9 5 4 7 9 5 2 1 7 10 12 14 15 12 13 17 15 5 5 6 5 5 6 7 7 8 8 9 11 13 14 16 18 21 22 23 25 26 25 25 27 28 28 27 25 26 28 30 30 30 30 27 27 27 26 26 26 26 26 24 21 19 17 18 19 17 17 18 17 16 16 15 14 15 13 14 13 12 11 10 8 6 5 5 5 4
5 5 6 6 7 8 6 7 9 10 10 11 11 11 9 9 9 4 6 11 10 13 15 14 15 14 17 17 13 12 10 8 9 9 10 11 11 11 11 12 14 15 16 18 21 24 24 24 26 27 25 25 27 28 29 26 24 26 28 27 28 29 28 28 27 26 26 24 25 26 22 18 18 16 16 18 17 16 18 18 18 18 16 16 16 15 14 14 13 13 11 9 7 5 5 4 3
6 5 7 7 8 10 8 8 10 11 12 13 13 12 12 10 9 7 9 13 12 14 14 14 15 14 12 13 13 13 13 12 11 12 13 14 14 14 14 14 15 17 18 18 20 23 25 24 24 27 26 24 26 28 28 27 25 24 25 25 25 26 27 28 26 24 24 23 22 23 21 18 18 16 16 19 19 17 17 19 19 19 19 18 17 16 15 15 15 14 12 10 8 7 6 5 3
4 5 8 9 9 10 9 10 11 10 9 11 14 13 14 11 8 9 10 11 11 13 14 14 15 15 13 11 11 8 12 12 12 13 14 16 16 16 16 16 15 16 16 17 17 21 26 26 24 25 26 26 26 27 27 27 26 25 25 25 25 24 23 25 25 22 22 23 21 20 20 19 19 17 17 21 20 17 16 20 21 20 20 19 18 17 16 17 17 15 13 11 10 9 8 6 5
5 8 12 13 13 12 11 11 9 6 7 10 14 14 13 10 8 10 13 12 10 12 13 15 17 17 16 14 14 9 9 11 12 14 15 16 17 18 17 17 16 15 14 17 18 20 25 27 25 26 26 26 26 26 25 26 26 26 25 24 24 24 22 22 23 23 22 23 23 21 20 20 20 18 17 21 21 17 17 19 21 20 19 20 20 17 16 18 17 15 13 13 11 10 9 8 6
6 10 12 13 13 13 12 11 3 1 8 12 13 13 12 12 13 13 15 15 15 16 17 18 19 20 20 17 15 12 10 11 13 15 16 17 18 19 19 17 17 15 15 17 18 18 20 25 27 26 26 26 27 26 24 26 27 26 24 24 24 22 21 22 22 24 23 23 24 23 22 21 22 20 18 21 21 19 18 19 20 19 18 20 20 17 17 19 18 16 15 14 13 12 11 9 8
8 12 13 14 14 13 12 11 5 4 11 13 12 13 14 16 16 15 16 17 17 19 18 20 21 21 21 18 15 14 14 14 15 18 19 18 19 20 19 18 17 16 15 16 17 17 18 24 27 26 26 26 26 27 26 26 26 24 23 24 24 22 22 22 23 23 23 23 25 25 24 22 22 21 19 21 22 20 19 19 19 19 18 19 21 18 20 21 18 17 17 15 14 12 11 9 9
12 14 14 13 13 12 11 11 11 10 11 11 12 15 18 18 15 18 22 19 19 20 19 20 20 20 18 16 15 14 14 15 15 18 19 18 18 18 17 18 16 16 17 16 16 17 19 23 26 27 27 26 26 28 27 25 23 23 24 24 24 25 24 22 23 23 23 24 25 27 26 23 23 22 21 21 22 21 19 20 19 19 19 20 22 22 22 22 19 19 18 16 14 13 12 11 10
8 10 12 12 12 12 12 13 14 12 10 10 12 16 19 16 14 19 21 16 15 17 18 18 17 17 16 14 14 13 14 14 14 17 17 16 15 15 16 16 15 18 19 17 16 18 20 22 25 28 28 28 27 27 26 25 23 23 25 25 25 28 26 22 22 23 23 24 26 28 29 27 24 22 22 21 22 22 20 20 20 20 20 22 25 25 24 22 21 21 19 17 16 14 13 12 11
7 9 11 12 14 15 15 17 16 13 13 14 14 15 18 13 10 14 14 8 8 10 12 14 14 15 14 13 13 12 13 14 15 16 15 14 13 14 16 14 16 19 19 18 19 19 21 23 26 28 29 30 29 28 28 28 26 24 25 25 26 28 28 24 23 23 24 24 26 30 32 32 27 22 22 22 22 23 21 23 24 24 24 25 27 27 25 23 22 21 19 18 17 15 14 13 12
9 10 11 14 17 16 17 18 17 13 11 11 12 14 16 12 10 15 17 12 11 12 12 13 13 15 15 15 14 11 11 13 15 14 13 13 12 13 14 14 17 19 19 22 23 20 21 25 26 28 29 31 32 31 31 31 28 25 25 26 25 26 28 27 25 24 25 25 29 34 36 36 32 24 23 24 24 24 25 27 29 28 28 28 28 27 26 24 22 21 20 19 17 15 14 14 13
7 8 11 15 16 15 18 18 15 14 7 2 4 10 12 11 13 19 20 16 14 13 12 13 13 14 14 14 13 11 11 13 14 12 13 15 14 13 13 15 17 19 21 23 24 23 22 24 25 28 29 31 35 33 31 33 29 25 25 26 25 25 28 28 26 26 25 26 31 37 37 37 36 28 24 27 27 26 29 31 31 31 30 29 28 28 27 25 24 22 22 20 18 17 16 15 14
8 10 9 11 12 12 15 11 7 9 5 7 3 7 7 10 13 16 14 10 10 10 11 14 14 14 13 13 12 13 14 14 14 14 14 15 15 16 16 16 17 18 19 20 22 23 22 24 25 27 28 30 33 33 30 30 29 27 25 24 24 24 26 27 27 27 26 28 33 37 38 37 37 32 27 29 30 29 30 31 32 32 31 30 30 29 28 27 25 24 23 21 20 18 16 16 15
8 11 7 7 8 8 9 4 5 4 3 8 6 7 7 10 12 13 9 5 7 10 13 16 17 15 14 13 14 15 16 15 17 19 17 15 15 16 16 16 17 19 18 17 19 21 22 24 26 27 29 30 31 32 30 27 27 28 26 24 24 24 26 26 26 27 28 31 34 36 38 37 37 36 32 31 32 32 31 32 33 32 32 32 31 31 29 28 26 25 24 22 21 19 16 16 14
7 9 7 7 7 8 8 5 7 6 2 9 9 6 8 9 10 10 9 8 10 12 15 17 18 18 16 15 15 15 16 16 18 19 18 17 16 14 15 16 18 19 18 16 16 19 20 23 26 28 29 30 30 30 30 26 24 25 24 24 24 23 25 25 24 27 31 33 34 35 37 38 38 38 36 34 34 34 32 32 33 33 33 33 32 32 30 28 27 25 24 23 22 19 16 16 13
7 8 8 8 9 9 8 3 5 6 2 9 12 8 9 9 11 13 14 16 17 16 17 19 20 19 17 14 13 14 15 14 14 14 15 14 13 12 14 15 15 16 16 15 14 15 17 19 22 24 25 27 26 25 26 25 22 21 21 22 22 21 22 23 22 24 29 31 32 34 35 38 39 39 38 37 36 35 33 33 34 34 35 34 33 33 31 29 28 26 25 24 22 20 18 16 14
6 8 9 10 11 10 8 6 6 3 3 8 12 11 12 13 13 15 15 17 18 17 19 20 19 17 16 14 14 14 13 13 12 11 11 11 12 12 13 13 12 12 12 13 12 12 12 13 17 20 21 20 20 20 21 22 20 18 17 18 19 19 20 21 20 20 25 27 29 32 33 36 39 40 40 39 37 35 34 34 34 34 36 35 33 33 31 29 28 28 27 26 22 20 19 18 15
10 10 9 10 11 12 13 11 10 8 11 15 14 14 16 16 14 14 15 16 17 18 19 19 16 17 17 15 14 13 12 11 8 7 9 11 12 12 11 9 8 8 8 8 8 8 9 9 11 15 17 16 16 17 18 18 17 16 16 15 16 18 18 20 20 20 22 24 28 31 33 35 37 39 40 40 39 36 35 35 33 34 36 35 33 33 32 29 28 28 27 27 23 19 18 18 16
17 14 11 12 13 13 15 15 13 15 17 16 15 17 16 16 15 14 17 18 18 19 19 16 15 15 16 14 12 10 9 7 5 7 10 11 11 10 9 8 7 6 6 5 5 5 7 8 8 10 12 13 14 15 15 15 15 15 15 15 16 17 17 19 21 22 22 24 29 32 34 36 37 39 40 40 40 37 36 35 33 34 35 35 34 34 33 32 32 30 27 27 26 21 16 16 17
17 15 12 14 15 13 14 15 14 13 14 12 12 16 17 16 15 16 19 19 18 18 17 16 16 16 13 10 7 5 5 6 6 8 9 9 10 11 10 10 10 8 7 6 4 3 4 6 7 7 9 11 13 13 13 14 15 14 15 16 16 16 16 17 19 21 21 22 25 29 33 35 35 37 38 39 39 37 35 34 34 35 34 35 36 35 35 34 34 32 28 28 28 25 20 17 19
15 13 12 13 12 13 14 16 15 11 10 10 12 16 17 17 17 19 20 18 15 14 14 16 17 15 9 4 4 4 5 5 5 6 10 12 13 14 13 13 14 14 12 10 8 5 3 3 4 5 6 9 11 11 12 12 13 13 13 13 14 14 14 15 16 18 19 19 20 24 28 30 33 35 36 37 38 38 36 34 34 35 36 36 35 35 34 33 34 32 30 29 28 28 24 21 22
12 10 11 10 9 12 14 12 9 4 3 8 14 15 15 16 19 20 15 11 10 11 14 16 14 11 7 4 4 5 5 6 9 11 12 14 16 16 16 16 17 17 16 14 13 10 6 4 2 2 2 5 7 9 10 10 10 11 11 10 9 10 10 11 13 13 14 15 17 21 25 27 29 32 33 35 36 38 38 35 34 35 37 37 35 35 35 35 36 34 33 32 29 26 21 22 27
10 9 9 9 10 11 10 7 6 5 7 11 14 13 12 14 15 13 6 3 6 11 15 13 8 5 4 4 4 5 6 8 11 12 13 15 18 19 19 19 19 19 19 19 17 15 12 9 7 3 1 2 4 7 9 8 7 8 9 8 8 9 8 8 9 11 12 13 15 20 25 27 28 30 32 33 35 37 37 36 36 37 38 38 38 38 37 38 38 37 36 34 31 27 21 22 29
9 10 9 11 13 13 12 12 12 12 11 9 10 11 8 5 4 5 2 2 8 13 12 4 3 4 3 5 6 8 10 10 12 13 14 14 16 19 21 21 21 22 22 22 21 18 16 14 11 7 3 1 1 4 6 6 6 6 6 7 9 9 10 9 9 11 12 16 20 23 26 29 31 32 33 34 36 38 37 36 36 36 38 40 40 40 40 40 40 39 39 36 34 34 28 25 28
9 9 10 13 14 14 15 14 12 10 6 3 7 9 5 1 1 5 6 8 14 14 6 8 11 9 9 9 10 11 11 12 14 15 15 14 16 19 22 24 24 25 25 23 22 21 19 17 14 11 7 4 3 1 4 5 5 6 5 7 7 8 9 10 10 12 12 15 19 22 25 28 30 31 32 34 36 38 39 38 36 36 38 40 41 41 39 39 40 41 40 38 37 37 31 26 28
7 4 5 8 11 12 12 11 8 6 6 3 5 6 6 4 7 10 8 11 16 7 9 14 12 11 11 11 12 12 13 13 14 15 16 16 17 19 22 25 25 24 24 24 23 23 22 20 18 14 11 8 6 3 1 3 3 5 6 7 8 8 9 9 9 10 11 11 13 15 18 22 26 28 30 33 34 36 39 39 38 37 37 39 40 39 38 39 42 42 41 41 40 38 33 28 29
5 2 5 5 7 9 8 7 6 5 9 9 5 6 7 7 6 7 8 14 14 2 14 13 12 13 13 13 14 14 14 14 12 14 16 16 18 20 22 24 25 24 24 24 24 24 23 22 20 17 14 12 10 7 4 1 1 2 4 6 8 9 10 11 10 9 9 9 9 11 13 16 21 25 27 29 33 34 36 38 39 39 39 39 39 40 38 37 40 42 42 41 40 39 37 33 31
2 3 2 3 4 6 5 5 7 7 8 8 5 7 6 8 3 3 7 11 7 8 13 12 13 13 12 12 14 14 14 14 13 14 15 15 18 21 21 22 23 24 24 24 23 23 23 22 22 20 18 15 14 11 8 5 4 3 4 5 7 8 9 10 10 10 8 8 9 11 12 13 16 20 23 25 29 32 34 35 37 38 39 39 38 40 40 37 38 41 43 43 41 39 39 38 33
1 3 1 2 3 5 5 6 6 6 8 9 7 9 6 7 2 3 3 3 2 8 10 11 13 13 11 11 13 14 13 12 12 13 14 16 18 20 20 22 23 23 23 23 23 22 23 22 22 22 20 18 17 15 12 9 7 5 6 6 8 9 10 10 10 10 10 9 9 10 12 12 13 16 20 22 25 29 33 34 35 37 39 40 38 40 42 39 38 40 44 46 45 41 39 40 36
2 1 4 5 6 6 5 5 4 5 8 8 7 12 8 5 1 1 2 2 3 5 8 10 12 11 11 11 11 12 12 10 11 12 14 16 19 20 21 23 23 23 23 23 23 22 22 23 22 23 23 21 19 18 15 13 10 8 8 8 9 10 11 12 11 12 11 11 10 10 10 11 12 14 16 20 23 27 30 32 34 36 37 38 38 40 42 41 39 40 43 45 45 43 40 40 39
0 3 4 5 6 4 4 4 3 5 7 2 1 6 8 7 3 1 3 5 4 5 6 10 11 10 10 10 11 11 11 10 10 11 12 14 16 19 21 21 21 22 23 23 22 21 21 22 22 23 24 24 21 19 18 16 14 12 10 10 10 11 11 12 12 13 13 13 13 11 10 10 11 12 14 17 21 25 27 28 31 33 35 36 38 40 41 41 39 39 41 43 45 45 43 41 40
3 3 3 5 5 4 5 5 4 6 5 2 4 0 6 9 7 8 8 1 8 9 8 11 12 10 10 10 10 10 9 10 11 10 10 11 11 14 17 18 18 19 20 20 20 21 20 22 23 23 24 24 23 21 20 18 17 15 13 12 11 11 11 11 12 13 13 14 14 13 12 11 11 11 13 17 21 23 25 26 28 31 33 35 37 38 39 39 39 37 38 42 44 45 46 44 42
7 6 5 5 5 5 7 6 6 7 4 3 3 1 5 7 7 10 9 2 12 13 12 13 13 11 11 11 10 10 9 10 9 9 10 10 10 13 14 16 17 18 20 20 20 20 20 21 22 22 22 23 23 23 22 21 19 18 15 14 12 11 11 11 11 12 12 13 14 14 13 13 13 12 13 16 20 22 23 25 27 29 31 33 34 35 37 38 38 37 38 40 42 44 46 46 44
8 6 5 6 5 6 7 6 7 9 7 2 3 2 4 4 1 4 7 12 13 12 13 12 12 12 11 10 10 9 9 9 8 9 10 9 11 13 15 16 17 18 20 21 21 21 20 20 21 22 22 22 23 22 23 22 20 19 18 16 14 13 12 12 12 12 12 13 14 14 14 13 14 14 13 14 16 19 22 24 25 27 28 30 31 33 35 36 37 37 38 39 41 42 43 45 45
4 2 3 5 4 4 7 7 8 9 8 6 5 4 5 4 2 2 10 15 13 12 13 12 12 11 10 9 9 8 8 8 7 8 8 9 12 14 15 15 15 15 16 17 18 19 19 19 20 21 22 23 24 25 24 23 21 19 19 19 17 15 14 13 13 13 13 13 13 14 14 14 14 15 16 15 14 17 20 22 24 26 27 28 29 31 32 34 35 36 38 38 39 40 41 43 44
2 2 3 2 1 2 6 8 8 7 9 8 6 7 8 7 9 7 8 15 13 11 11 11 11 11 10 8 7 6 6 6 6 6 7 9 12 13 12 12 12 12 12 13 14 14 14 15 16 18 20 22 24 24 24 24 23 22 22 22 21 18 16 14 13 14 14 13 13 13 13 14 14 14 16 16 15 17 19 21 23 25 25 27 28 29 31 32 34 35 37 38 38 38 39 42 42
2 3 1 1 0 1 3 6 7 8 10 7 7 12 11 7 5 1 11 14 11 9 10 10 10 9 8 7 5 5 5 4 5 6 6 7 8 9 8 8 9 9 9 10 12 13 13 14 14 15 17 18 19 19 19 19 20 21 21 22 24 24 21 19 16 16 15 14 14 14 13 14 14 14 15 16 16 17 19 21 22 24 25 26 27 29 30 32 32 34 36 37 38 37 37 40 41
3 2 2 1 4 4 5 7 6 9 10 8 9 12 10 9 8 1 7 11 10 9 8 8 8 8 7 6 5 5 4 4 4 4 4 4 4 4 4 5 6 7 8 8 9 11 13 14 15 16 17 17 16 15 14 13 14 17 18 20 22 25 25 25 23 22 18 16 15 15 15 15 15 15 15 16 16 18 19 21 22 24 25 26 27 28 29 30 32 33 34 35 36 36 37 38 39
2 3 1 2 3 4 6 5 3 7 10 9 8 9 8 6 5 2 6 9 9 8 7 7 7 6 5 4 4 3 3 3 2 2 1 1 1 2 3 5 6 7 8 7 8 9 11 12 13 14 15 16 16 15 13 13 13 15 18 20 22 24 26 25 23 22 20 19 18 17 16 17 17 17 16 16 17 18 19 19 20 22 24 25 26 27 29 30 31 33 33 33 33 35 37 38 38
4 4 5 5 4 2 4 4 3 5 8 8 8 8 7 3 4 6 9 9 7 7 8 6 5 6 5 4 3 2 2 2 1 0 0 1 2 4 4 5 5 6 7 7 7 8 9 10 11 10 11 13 15 17 19 19 18 17 18 19 20 21 22 23 22 21 22 23 23 22 20 19 19 18 18 18 18 18 19 19 20 21 22 24 25 26 28 28 29 31 32 32 32 33 35 37 37
2 2 4 5 4 3 5 6 5 4 6 7 8 9 5 1 4 6 8 7 6 7 6 6 5 5 5 4 3 2 2 1 1 1 1 2 3 5 5 5 5 6 7 8 8 8 9 10 11 11 11 13 15 17 20 22 22 21 21 22 22 21 21 23 24 25 25 26 26 24 23 22 21 20 19 19 19 19 19 19 20 20 21 23 24 26 26 27 28 30 30 31 31 31 33 35 36
Wind_Direction
335 323 316 305 291 286 273 268 278 224 237 270 268 308 59 50 355 297 307 43 41 62 23 330 307 289 281 309 329 327 304 286 308 321 357 96 134 169 182 192 162 155 169 160 172 185 186 186 179 176 180 182 183 182 184 187 185 185 187 186 185 185 184 186 189 189 187 186 186 186 185 183 175 168 161 153 152 149 147 144 143 143 140 135 130 126 123 124 118 113 125 184 248 256 145 128 117
332 311 295 279 270 270 285 294 285 263 248 275 178 47 31 43 283 273 10 20 15 33 355 310 295 270 270 295 298 295 288 264 289 319 45 136 154 165 193 191 167 159 167 162 169 183 184 187 182 177 181 183 184 184 185 189 187 188 189 188 189 192 190 188 192 192 190 191 192 192 191 188 177 169 159 152 150 144 144 141 137 137 135 130 126 128 124 120 111 116 203 240 237 241 221 188 94
316 304 283 266 248 245 281 245 266 297 286 297 67 77 23 325 357 9 19 14 16 18 319 292 279 265 258 256 266 284 295 299 306 312 77 144 224 153 196 192 172 161 167 166 166 179 181 187 185 178 182 185 186 186 187 190 189 191 192 190 192 198 196 192 194 195 195 195 197 197 194 187 176 167 160 155 151 139 138 140 136 135 138 135 131 135 123 116 118 116 188 254 251 248 248 255 305
311 295 277 271 246 230 260 249 266 300 293 311 14 77 47 333 0 356 3 2 6 339 292 289 262 191 247 263 298 290 279 318 42 337 14 99 44 128 191 194 176 162 170 171 168 175 179 192 190 181 183 188 188 188 190 191 192 194 197 195 196 200 199 196 196 198 199 198 199 197 190 180 171 166 161 157 154 151 147 141 138 140 140 143 140 139 132 130 139 117 125 261 265 268 268 276 299
294 276 265 268 267 266 276 272 271 270 287 332 323 24 34 3 342 333 336 331 335 293 284 270 266 141 239 275 299 283 318 354 83 20 28 96 129 188 197 196 179 167 173 173 172 174 180 196 196 186 184 190 192 191 193 193 194 197 199 198 200 202 201 197 196 199 199 200 199 192 185 177 170 166 162 159 162 173 170 157 159 163 155 163 167 161 172 172 176 138 151 261 272 280 286 290 296
267 254 236 250 273 337 276 264 265 258 301 353 306 324 351 352 348 332 318 314 316 258 259 240 274 287 262 250 225 250 333 341 64 81 154 140 199 200 205 193 179 173 176 175 175 174 184 197 199 193 185 191 195 196 197 196 197 198 200 199 202 203 200 196 194 198 197 199 195 187 182 177 173 166 163 168 173 176 184 185 181 194 185 180 191 197 204 185 172 157 183 265 279 283 288 293 294
266 247 205 230 227 241 258 262 279 285 20 28 310 316 324 330 342 323 308 310 151 172 211 226 276 286 276 225 223 230 254 258 265 213 172 206 201 191 203 187 179 180 177 176 177 176 190 198 200 199 188 190 196 199 201 200 200 200 201 198 200 200 196 195 191 192 192 193 189 184 181 177 174 167 174 188 203 203 213 210 190 234 223 198 202 202 194 187 191 172 199 264 278 280 285 287 289
261 267 208 249 231 203 257 272 278 288 12 8 305 304 308 319 328 310 305 302 270 208 200 215 225 264 258 152 256 171 178 224 223 223 204 224 222 202 196 180 181 183 179 178 178 180 197 200 200 201 191 190 195 200 203 203 203 201 201 195 196 196 194 193 188 187 187 188 186 182 182 181 178 184 208 230 244 240 244 239 214 240 239 219 220 203 185 203 204 186 231 264 273 275 280 283 286
234 249 225 267 258 233 259 265 265 277 294 311 299 296 299 305 308 300 298 286 278 278 216 209 203 247 288 205 260 140 149 207 218 231 230 232 227 219 194 180 185 182 180 180 180 182 198 203 201 201 193 192 195 200 204 205 204 201 201 196 196 196 194 192 189 190 187 188 186 185 190 195 197 207 232 244 248 242 242 237 218 232 233 222 225 209 204 217 217 219 252 266 270 273 277 280 285
218 235 258 271 267 264 261 263 283 302 300 312 295 296 303 301 301 290 289 293 296 284 179 129 214 238 282 289 276 138 141 181 206 230 232 231 218 216 196 185 186 182 181 180 182 181 194 206 203 198 194 194 197 201 203 204 204 201 199 196 196 195 195 193 191 194 190 192 191 192 199 205 214 221 228 235 241 235 229 218 208 219 215 211 209 206 210 210 221 242 260 265 268 269 271 275 280
227 205 263 275 261 271 291 313 324 323 322 309 284 282 317 325 303 274 265 282 278 270 185 147 223 240 259 277 274 131 136 180 177 197 221 225 213 205 192 187 186 185 186 181 183 181 189 206 202 195 193 196 199 201 201 200 202 202 199 195 196 195 197 196 194 196 195 198 198 203 209 214 226 230 228 236 246 243 233 214 203 207 203 202 197 197 196 195 225 249 259 261 263 258 257 260 256
253 202 231 269 280 293 321 320 315 315 308 290 257 124 95 271 263 273 271 285 281 281 235 180 206 297 253 264 265 134 152 176 155 181 214 214 208 198 185 189 189 187 189 184 184 184 186 199 199 194 193 196 200 201 199 198 201 204 203 199 198 198 200 202 202 204 204 205 206 210 219 225 231 231 233 241 245 241 225 207 199 201 201 198 195 194 189 201 233 249 251 248 238 221 211 171 126
261 280 263 273 299 300 308 305 302 307 300 294 107 117 135 237 250 285 305 298 283 281 262 179 225 315 266 278 285 176 161 152 163 204 216 187 184 191 183 188 192 188 190 189 188 187 187 194 197 194 194 196 198 201 200 200 202 204 206 205 205 204 203 206 208 213 214 214 216 217 222 228 229 229 235 239 240 230 208 204 199 198 202 199 196 194 192 212 232 237 237 224 204 185 169 154 137
275 296 285 283 296 283 285 287 296 303 302 24 95 133 178 243 265 298 297 290 288 297 10 118 248 279 270 271 262 220 136 136 179 209 199 180 171 182 183 184 192 189 191 193 194 193 191 195 197 196 198 198 199 203 203 204 206 206 210 211 212 211 210 212 213 216 220 220 222 222 224 229 231 231 232 235 236 223 204 206 202 198 199 196 195 193 198 216 225 227 223 208 195 180 172 161 145
284 291 274 275 280 275 256 263 299 300 296 331 119 135 216 251 250 259 273 282 304 18 32 279 208 244 278 273 284 79 105 137 178 194 189 190 182 179 185 189 195 193 196 196 197 197 196 197 198 201 201 201 201 204 206 208 210 211 214 215 216 216 217 218 218 219 221 222 223 222 222 226 230 231 230 232 231 218 209 211 205 198 195 193 193 196 207 218 221 220 213 203 193 183 180 164 150
270 282 257 263 275 276 237 236 289 278 303 352 125 136 265 268 225 238 295 297 300 313 264 248 197 231 274 283 320 86 117 148 154 175 176 183 181 182 191 200 201 199 203 201 202 202 200 199 199 203 204 203 204 205 210 213 215 215 216 218 217 218 219 218 218 220 221 221 221 221 220 221 226 227 227 229 226 218 215 215 208 198 194 195 195 198 210 218 218 216 210 203 196 188 179 168 158
248 258 250 259 263 269 258 241 285 294 318 335 156 178 268 290 205 198 15 270 274 279 267 260 225 230 256 267 288 118 159 169 155 167 158 173 183 189 199 203 202 202 207 206 206 205 202 202 201 203 205 207 207 207 210 215 220 219 216 217 217 218 219 217 216 218 221 221 221 221 219 218 222 224 226 226 223 222 220 215 209 199 192 196 196 196 210 216 215 214 212 208 201 190 177 169 161
223 235 248 257 261 277 291 279 300 304 300 304 293 269 274 288 277 186 261 251 254 267 267 267 252 236 245 253 240 198 222 208 192 187 180 190 193 199 203 201 204 204 205 206 207 204 203 204 204 204 205 208 208 209 211 213 220 220 215 215 217 217 219 218 216 218 220 221 221 220 217 215 215 217 221 220 215 217 219 213 208 201 191 195 200 201 211 215 213 213 214 212 206 196 184 175 164
227 250 261 257 262 283 297 288 296 298 293 299 299 294 285 284 288 287 275 272 272 273 269 270 265 252 247 245 232 217 214 207 198 203 210 209 208 213 211 204 204 207 205 205 206 205 203 203 204 205 205 206 206 209 212 213 217 218 214 213 216 217 218 218 215 216 218 217 218 217 211 209 208 208 211 210 206 208 215 213 207 203 196 199 206 208 212 213 212 214 215 213 209 203 194 187 174
236 242 259 261 267 279 280 282 288 289 293 295 294 297 293 282 282 276 268 277 278 272 271 272 273 272 267 253 241 218 204 214 208 213 226 225 224 223 224 216 207 209 208 207 207 205 204 204 204 205 205 204 203 206 210 212 213 215 213 211 214 214 215 216 212 210 212 209 211 210 206 205 204 202 208 207 203 202 208 210 206 204 203 206 209 208 211 212 213 215 214 211 209 203 196 196 189
243 223 250 269 281 284 275 284 288 284 291 293 293 295 290 286 282 265 262 273 270 263 265 270 276 284 287 286 286 244 202 215 215 217 228 232 232 228 231 229 222 218 210 207 205 205 207 205 203 204 205 204 202 202 206 210 211 212 211 209 211 210 208 209 207 205 207 205 204 204 203 204 199 197 204 204 200 194 197 204 202 202 205 208 209 207 210 212 214 216 210 206 207 204 198 198 195
261 239 250 267 275 278 276 290 293 285 292 289 287 287 290 294 279 260 258 262 260 265 276 284 286 289 291 291 299 284 215 220 224 223 228 230 233 232 233 233 232 226 210 207 207 207 209 207 205 204 204 203 203 201 204 210 210 210 209 207 208 207 203 202 203 204 205 203 201 202 200 200 197 195 198 197 195 191 191 196 195 196 199 206 207 201 209 214 214 213 208 204 204 205 203 202 199
257 259 256 263 268 272 280 293 297 250 278 276 279 287 294 287 275 270 262 257 258 266 276 285 285 285 289 289 289 277 243 241 246 240 237 234 233 232 233 233 232 225 213 210 210 209 206 207 207 205 204 203 204 203 204 210 209 206 205 205 204 203 201 199 200 202 203 201 199 200 199 197 194 193 195 194 193 191 191 190 190 192 190 203 204 193 205 213 212 210 208 206 205 208 208 207 208
245 267 269 270 273 274 280 288 278 251 265 268 278 286 281 274 278 283 273 266 268 270 271 273 277 280 284 285 280 268 255 255 256 252 248 243 239 236 233 234 235 230 223 216 213 210 206 209 209 205 206 204 204 203 205 209 207 203 204 205 205 203 200 200 200 200 201 199 198 199 199 196 193 194 195 194 194 192 193 188 188 191 187 198 201 193 206 212 210 209 208 209 208 211 212 210 212
244 257 268 273 274 274 278 280 272 262 259 262 269 269 266 268 280 283 276 274 271 268 268 269 273 277 280 281 277 266 258 257 255 253 251 245 243 243 238 235 235 233 230 224 215 210 211 215 212 208 207 206 205 205 205 208 207 204 204 204 205 206 203 200 201 199 200 199 198 200 199 196 193 195 196 193 193 192 192 189 186 189 187 196 201 199 209 211 207 209 209 210 210 211 211 211 213
263 265 277 286 285 284 283 278 270 263 258 255 255 259 264 272 282 278 272 273 271 265 265 269 273 277 279 280 277 268 261 259 255 254 253 247 240 240 238 231 228 230 231 228 220 215 214 214 213 212 212 209 207 206 206 208 208 206 205 204 205 207 204 200 201 200 200 201 199 200 201 200 196 195 197 193 193 192 190 189 188 190 190 198 204 204 210 210 207 210 210 208 209 208 209 211 212
311 300 298 292 287 286 280 274 270 262 260 255 247 256 270 279 279 272 272 274 278 272 269 277 284 285 285 284 280 270 263 259 258 258 257 250 236 233 235 226 226 230 229 226 223 219 215 214 214 214 214 213 210 208 209 209 208 208 207 206 206 206 203 200 200 200 200 200 199 202 206 209 204 196 196 194 193 194 192 194 196 198 200 205 208 207 210 208 207 210 209 208 207 205 208 209 207
306 303 302 287 281 279 272 269 267 257 259 256 243 254 270 273 253 255 267 270 272 276 277 280 283 286 288 287 283 272 261 254 253 253 250 247 234 230 231 224 226 230 229 228 226 220 215 215 216 215 212 214 214 209 211 212 208 209 209 207 207 205 204 203 201 201 200 201 205 210 213 215 211 201 198 199 197 196 198 203 205 205 207 209 210 210 210 207 206 209 208 206 204 201 206 208 204
294 292 291 285 281 277 270 266 261 253 244 173 223 254 260 253 238 244 257 264 267 269 274 281 280 283 287 286 284 275 265 256 250 243 237 238 235 233 232 228 228 231 235 237 233 221 214 215 215 216 212 212 217 212 211 215 209 208 208 208 210 206 205 205 203 203 201 204 212 217 218 217 214 206 202 207 205 202 206 209 209 209 210 211 212 210 210 207 205 207 207 204 202 201 205 208 203
281 280 275 283 285 277 274 267 249 248 206 131 196 269 272 264 258 260 270 281 277 267 274 289 288 287 287 285 283 275 270 265 258 252 243 237 237 236 236 237 235 232 234 235 232 223 216 219 217 216 212 211 217 215 210 212 208 206 207 207 209 206 205 205 206 206 204 209 216 219 219 217 215 211 208 212 211 209 211 212 212 212 212 213 213 212 211 209 206 208 207 204 205 204 207 210 203
276 282 266 263 274 277 281 246 169 219 166 152 211 267 279 282 282 283 301 320 288 275 282 291 288 287 286 281 278 273 269 265 264 267 266 258 252 242 237 242 242 236 233 227 229 229 222 222 222 219 216 213 215 215 209 207 206 207 207 206 206 206 207 207 208 209 210 215 218 220 221 218 217 215 213 214 215 214 214 214 215 214 213 214 214 213 212 209 208 210 208 204 204 203 205 209 200
266 279 268 252 259 280 284 211 187 249 212 169 207 267 281 281 289 295 307 306 287 281 285 287 284 282 282 277 273 271 270 269 271 275 277 273 268 253 243 247 245 240 238 229 227 231 223 221 226 225 222 217 213 214 210 206 207 207 207 208 208 207 208 208 208 211 217 220 220 222 223 220 218 217 215 217 218 216 215 216 217 216 216 215 214 214 212 208 207 208 208 204 203 199 199 203 193
249 254 264 267 270 284 289 256 250 276 186 183 213 260 285 281 289 294 297 294 289 287 286 283 281 281 279 275 272 271 273 276 278 280 282 281 277 264 255 257 255 248 244 238 230 227 220 219 226 228 225 220 213 210 209 206 207 206 207 210 210 208 208 210 210 214 219 221 221 223 224 222 220 219 218 219 220 218 217 218 218 218 218 216 215 214 210 207 206 206 206 204 202 199 197 197 186
262 260 267 271 273 286 292 296 303 271 212 241 241 251 269 275 283 287 287 286 285 284 281 277 278 282 281 278 275 273 276 281 285 289 292 289 284 278 275 274 272 265 256 249 242 231 224 218 221 227 226 219 210 208 207 206 206 205 207 210 210 211 212 213 211 213 218 220 222 223 225 225 223 222 221 221 221 220 218 218 219 219 218 216 214 213 209 205 206 207 205 203 200 199 199 196 187
283 285 289 287 285 293 293 293 303 292 278 284 279 271 275 283 287 287 284 281 278 274 273 275 280 284 282 278 275 276 280 287 298 310 304 300 299 300 301 301 298 294 284 271 259 239 229 219 215 225 224 212 206 208 207 206 206 207 209 209 210 212 213 214 213 214 216 218 223 225 226 227 226 224 223 222 221 220 219 218 217 219 219 215 212 212 208 204 205 206 205 203 198 196 201 199 192
284 289 291 290 287 285 287 286 292 294 289 288 287 285 288 292 292 290 283 276 270 268 272 280 284 278 274 275 279 287 296 308 331 321 312 318 324 328 333 338 341 331 321 308 282 245 229 220 209 213 215 206 201 203 203 202 205 208 210 210 211 213 214 214 215 217 217 219 225 227 228 228 228 227 224 223 222 220 220 218 217 219 219 214 212 211 207 206 207 206 204 203 197 193 194 194 193
283 287 282 279 279 278 281 282 284 290 289 284 286 289 293 296 294 286 279 274 271 271 274 277 273 269 272 284 302 328 331 325 314 316 341 3 3 3 9 10 12 11 6 357 332 277 239 225 215 206 202 198 196 198 199 199 203 206 209 213 216 217 215 214 217 219 219 220 224 227 229 229 228 227 226 224 222 220 219 219 219 219 218 214 214 213 210 209 209 206 203 203 201 195 189 187 190
279 279 278 276 276 279 280 282 286 295 291 285 289 291 294 298 292 280 277 280 280 274 268 263 264 271 287 323 3 356 332 326 334 13 37 40 34 30 33 34 33 32 26 19 11 352 319 266 237 222 202 194 197 199 199 203 207 209 213 219 222 223 219 217 220 222 222 222 224 227 230 230 228 228 226 224 223 221 219 219 220 220 218 216 215 214 212 210 209 206 202 201 202 199 195 191 188
273 271 275 274 278 282 283 282 282 289 292 292 299 299 295 288 279 278 283 286 280 266 257 259 269 285 305 332 341 334 344 23 44 53 54 51 46 39 37 40 38 37 32 27 22 17 13 3 330 270 219 198 202 203 203 208 213 215 219 225 227 226 226 226 225 225 224 222 223 229 232 231 230 229 228 226 224 223 220 219 221 222 220 217 214 213 211 210 210 207 204 202 199 197 199 199 195
259 260 269 274 279 282 287 294 290 293 291 293 301 299 287 276 264 265 271 253 258 255 252 259 280 305 318 337 353 10 32 52 59 58 54 51 46 37 35 35 34 34 32 28 23 22 23 18 13 359 294 218 214 207 208 214 213 213 215 222 227 224 228 231 227 226 225 222 224 232 235 235 233 231 230 230 227 225 223 221 222 223 222 219 216 214 212 212 211 208 206 203 197 192 194 202 204
260 258 260 266 277 284 293 307 311 305 292 294 310 301 288 283 243 226 219 261 277 269 264 270 59 53 48 51 46 48 50 57 62 58 51 46 41 37 35 31 30 31 27 24 22 22 21 19 20 17 14 348 260 211 209 211 205 204 203 218 231 232 235 236 230 227 223 227 233 236 239 239 237 235 233 232 231 229 226 224 223 224 223 221 218 216 215 214 213 210 208 204 201 198 195 198 205
271 262 261 269 283 295 301 310 317 309 291 32 7 321 301 45 291 279 294 295 282 279 316 47 57 51 51 52 50 53 55 55 55 53 47 40 37 37 35 31 29 28 24 21 21 23 23 22 22 23 28 27 4 257 210 205 206 214 215 226 238 240 243 240 238 237 228 229 235 237 241 242 239 237 235 234 233 232 229 226 224 224 224 223 220 218 217 216 214 213 210 206 206 205 200 196 201
272 290 312 299 300 304 307 313 316 302 290 337 7 307 287 288 279 280 278 271 269 277 61 60 54 51 55 52 47 48 49 53 52 47 42 37 35 35 34 32 29 26 22 20 22 23 23 23 23 25 29 32 22 7 240 207 217 234 238 246 255 258 262 260 257 254 243 238 236 233 236 241 241 239 236 236 236 234 232 229 226 225 224 224 223 218 218 218 217 215 213 210 209 208 204 200 201
263 16 2 333 312 304 310 312 295 285 293 292 252 229 268 287 282 268 243 254 264 90 80 68 58 53 53 56 57 52 48 50 48 44 41 37 36 35 34 33 30 27 23 21 22 22 22 23 24 26 29 31 23 12 9 353 309 284 268 264 265 268 272 275 278 275 258 243 235 229 228 233 241 241 238 237 238 236 233 230 228 227 225 225 224 221 220 221 220 217 215 213 212 210 208 206 205
269 70 359 328 308 291 292 289 282 285 295 289 222 192 258 288 285 222 229 259 271 101 90 76 70 57 48 54 62 62 55 48 45 45 44 38 36 35 35 34 31 29 25 24 24 22 23 25 26 27 28 29 24 16 14 9 358 339 311 295 288 285 283 282 281 278 269 249 235 231 228 228 236 241 239 237 238 239 236 232 230 229 227 225 225 224 223 223 223 220 217 215 213 212 212 211 211
59 89 295 274 246 257 258 262 280 284 274 274 236 191 241 298 292 188 211 282 352 97 93 81 77 67 56 52 54 58 55 46 43 45 44 40 38 35 34 35 32 29 26 25 26 26 26 26 26 27 27 25 23 19 17 14 11 1 340 324 310 303 300 297 290 282 276 264 247 233 228 227 228 236 240 237 238 240 239 236 233 231 230 228 227 227 225 225 225 223 220 219 216 214 215 215 215
67 270 285 276 249 242 242 246 266 272 263 276 241 196 218 295 316 171 106 97 49 65 91 91 80 73 64 52 48 51 50 45 39 39 40 38 36 33 32 32 29 26 24 23 24 24 26 26 26 27 27 25 23 20 19 16 17 11 357 341 324 316 311 304 298 291 286 279 268 252 238 232 225 228 235 238 240 243 241 238 236 235 234 232 230 229 228 224 224 224 223 222 219 217 217 216 217
238 261 289 294 269 234 233 226 199 252 265 321 72 187 223 251 229 95 79 113 87 54 89 101 91 84 72 57 51 48 46 47 41 35 35 32 31 31 29 29 27 24 23 22 21 22 25 25 24 26 26 25 23 21 20 18 19 16 5 351 337 327 319 311 305 300 297 291 283 274 262 248 233 226 227 235 244 245 242 239 237 237 236 234 233 232 231 228 227 228 226 223 221 220 220 219 218
208 231 244 271 279 254 252 245 226 260 263 118 90 178 247 250 251 262 265 187 89 83 94 101 99 91 76 65 59 51 46 45 43 38 33 31 32 30 28 28 27 24 23 21 21 22 23 22 22 25 24 22 23 23 22 20 21 17 10 1 350 339 329 320 312 306 304 300 294 287 279 267 252 237 228 237 249 250 244 241 240 239 237 237 236 235 234 232 230 229 227 226 224 223 222 221 221
191 206 211 221 257 265 267 271 263 267 263 144 132 266 263 264 266 256 255 78 84 89 92 95 95 88 75 65 59 55 50 45 43 41 33 30 29 29 30 29 26 24 20 20 21 21 22 22 21 23 22 20 22 24 23 23 22 18 13 7 360 351 341 332 324 317 313 307 301 295 290 282 273 264 248 248 254 254 250 247 245 243 241 241 240 238 237 235 233 231 230 229 226 226 226 224 225
194 205 213 224 247 259 269 279 273 276 287 262 177 196 258 269 47 91 92 85 87 89 86 87 85 83 77 66 57 51 48 43 40 41 38 32 29 30 31 28 25 23 19 18 18 17 19 19 19 22 21 19 20 23 24 24 22 20 18 15 9 2 353 342 333 327 322 315 308 302 297 291 286 282 276 266 258 256 257 254 249 246 245 245 243 241 240 238 235 233 232 232 230 229 228 227 228
195 155 219 243 258 255 264 271 272 286 295 272 222 226 256 259 265 158 109 95 90 87 84 82 76 77 75 67 59 49 44 41 37 40 37 31 31 31 29 27 25 23 21 21 18 17 18 17 18 20 20 20 21 22 22 21 20 20 21 20 16 9 2 353 342 334 325 317 312 307 302 297 293 290 288 283 268 261 265 262 256 253 250 248 246 243 242 240 237 236 235 235 233 232 231 230 230
131 141 218 239 352 279 268 267 265 267 270 264 247 256 264 266 270 244 139 102 90 88 84 81 79 80 79 74 71 64 58 52 45 44 37 30 28 26 24 23 24 23 23 23 22 21 22 21 21 22 22 22 23 22 21 20 19 19 21 23 23 19 10 359 346 335 327 323 318 312 306 301 297 295 292 289 277 270 272 269 263 259 255 252 250 247 245 243 240 239 238 236 235 234 233 232 232
175 201 231 55 33 259 253 261 263 254 256 257 247 261 271 270 277 138 115 107 99 95 89 89 90 89 88 86 83 77 70 60 52 46 38 32 24 20 19 18 22 23 21 25 26 25 27 27 27 26 26 24 22 20 19 17 15 16 16 20 23 24 21 15 5 351 338 331 327 321 314 307 301 298 295 290 281 275 278 276 269 264 259 256 254 250 248 246 242 240 239 239 238 236 236 236 234
247 289 10 313 260 254 239 247 255 251 256 256 244 255 265 259 268 267 120 118 111 102 91 90 88 84 84 83 77 70 63 55 52 47 36 30 19 7 2 358 357 358 3 13 19 21 25 27 28 30 30 28 24 22 18 14 13 15 15 18 21 23 23 21 18 12 1 345 336 329 320 314 309 303 297 291 283 278 279 280 275 269 264 259 255 253 250 248 244 242 242 241 240 237 237 239 237
238 284 265 230 261 270 259 260 263 252 258 263 253 251 250 260 297 11 102 104 106 107 96 86 81 81 82 82 80 73 66 58 48 45 27 1 352 340 344 349 347 346 352 358 5 13 19 22 27 30 31 30 28 25 22 17 14 16 17 20 23 24 24 21 17 14 8 1 356 348 333 322 316 309 302 295 286 279 277 277 275 272 268 262 258 255 252 249 246 245 244 242 241 238 238 240 239
228 233 232 227 227 250 273 267 240 245 260 266 264 256 248 284 19 73 95 92 94 99 98 101 99 98 99 96 99 100 98 107 130 155 298 326 340 346 350 348 347 353 359 2 6 13 18 21 22 22 24 25 24 26 27 24 21 18 16 16 17 18 18 16 14 12 9 7 7 1 351 340 329 318 310 303 294 285 280 277 273 270 268 264 260 257 254 251 247 246 245 243 242 240 239 239 240
297 249 253 261 258 261 274 259 229 224 248 252 257 260 256 14 46 82 91 85 81 80 86 97 95 93 95 87 79 77 74 69 43 5 338 337 338 335 331 332 345 358 5 10 14 16 19 20 19 19 18 17 17 20 22 24 24 22 19 18 17 13 10 9 11 11 10 9 7 3 358 353 344 333 321 310 302 294 287 281 276 272 268 265 262 259 256 252 248 247 247 244 242 239 238 239 240